DELTA 1 DEB *, 18591

Orbit data source: Space-Track

DELTA 1 DEB *, 18591 is space debris in LEO originally from a launch on Thu, 29 Jul 1976 UTC launched from the Air Force Western Test Range (AFWTR). Debris objects in space refer to the collection of defunct objects orbiting the Earth. Examples of debris include non-operational satellites, rocket bodies, and fragments generated from explosions, collisions, or faulty payload assembly.

Loading next visibility...
Identifier
18591, 1976-077FD
Orbit
LEO
Country
Flag of USUS
Related business
Manufacturer
Unknown
Mission
Spacecraft
Bus & Motor
Unknown
Mass
Unknown
Launch date (UTC)
1976-07-29 (49 years ago)
Launch vehicle
Unknown
Launch site
Air Force Western Test Range (AFWTR)
Object type
Payload
Rocket body
Debris
Shape & HBR
Unknown shape, 1.1 m
Radar Cross Section
Medium (>0.1 m² and <1 m²)

Expand to show TLE details & history
Last TLE update: 1 day ago

TLE from 1 day ago
0 DELTA 1 DEB *
1 18591U 76077FD  25290.87031502  .00007454  00000-0  16571+0 0  9994
2 18591 100.9965  39.1133 1085405 143.3706 343.7982 10.59949136566126
Epoch: 2025-10-17T20:53Z
TLE epoch observation values (Epoch: 2025-10-17T20:53:15.217Z)
Latitude
55.33369°
Longitude
-104.57453°
Altitude
1,481.779 km
Speed
7.487 km/s
True Right ascension
15h 41m 23s
True Declination
55° 11' 15"
Sunlit
Object was in daylight at epoch
Visualization orbit readout
Latitude
Unknown
Longitude
Unknown
Altitude
Unknown
Speed
Unknown
Apparent Right ascension
Unknown
Apparent Declination
Unknown
Sunlit
N/A
Visualization observer readout
Local Sidereal Time
18:08:49
Azimuth
Unknown
Elevation
Unknown
Doppler factor
Unknown
Orbital elements
Apogee altitude
3,323.622 km
Perigee altitude
1,423.766 km
Semi-major axis
8,751.831 km
Eccentricity
0.10854
Inclination
100.9965°
RAAN
39.1133°
Arg. of periapsis
143.3706°
True anomaly
339.81484°
Mean anomaly
343.7982°
Eccentric anomaly
341.86223°
Mean motion
2.65091 °/min
Orbital period
135.8 mins
BSTAR
0.16571
Loading maneuver chart data...
Computing Atmospheric mass density...
Loading historical data...
Loading historical data...
Loading historical data...
Loading historical data...
Loading historical data...
Loading historical data...
Loading historical data...

Documentation

Showing up to 5 results
|